Weather History for KFDR - February, 2014

Change the Weather History Date:

Friday, February 21, 2014

  Actual Average (KLTS) Record (KLTS)
Temperature  
Mean Temperature 48 °F -  
Max Temperature 70 °F 54 °F 69 °F (2014)
Min Temperature 27 °F 32 °F 20 °F (2014)
Degree Days  
Heating Degree Days 16    
Moisture  
Dew Point 20 °F    
Average Humidity 38    
Maximum Humidity 69    
Minimum Humidity 13    
Precipitation  
Precipitation 0.00 in - - ()
Sea Level Pressure  
Sea Level Pressure 29.98 in    
Wind  
Wind Speed 9 mph (SSW)    
Max Wind Speed 25 mph    
Max Gust Speed 33 mph    
Averages and records for this station are not official NWS values.
T = Trace of Precipitation, MM = Missing Value Source: NWS Daily Summary

Daily Weather History Graph

Daily Weather History Graph

Search for Another Location

Airport or City:

Trip Planner

Search our weather history database for the weather conditions in past years. The results will help you decide how hot, cold, wet, or windy it might be!

Date:

Astronomy

Feb. 21, 2014 Rise Set
Actual Time 7:14 AM CST 6:25 PM CST
Civil Twilight 6:48 AM CST 6:50 PM CST
Nautical Twilight 6:19 AM CST 7:19 PM CST
Astronomical Twilight 5:50 AM CST 7:48 PM CST
Moon 12:03 AM CST (2/21) 10:57 AM CST (2/21)
Length of Visible Light 12h 01m
Length of Day
11h 10m
Waning Gibbous, 60% of the Moon is Illuminated
Feb 21
Waning Gibbous
Feb 22
Last Quarter
Mar 1
New
Mar 8
First Quarter
Mar 16
Full

Hourly Weather History & Observations

Time (CST) Temp. Windchill Dew Point Humidity Pressure Visibility Wind Dir Wind Speed Gust Speed Precip Events Conditions
12:53 AM 37.0 °F 32.4 °F 16.0 °F 42% 30.09 in - SW 5.8 mph - N/A   Clear
1:53 AM 32.0 °F 27.5 °F 18.0 °F 56% 30.09 in - West 4.6 mph - N/A   Clear
2:53 AM 33.1 °F 30.0 °F 17.1 °F 52% 30.07 in - WNW 3.5 mph - N/A   Clear
3:53 AM 28.0 °F 24.2 °F 17.1 °F 63% 30.07 in - West 3.5 mph - N/A   Clear
4:53 AM 30.0 °F 26.5 °F 16.0 °F 56% 30.04 in - West 3.5 mph - N/A   Clear
5:53 AM 27.0 °F 21.6 °F 18.0 °F 69% 30.06 in - West 4.6 mph - N/A   Clear
6:53 AM 28.9 °F 23.9 °F 16.0 °F 58% 30.09 in - West 4.6 mph - N/A   Clear
7:53 AM 28.0 °F 21.7 °F 19.0 °F 69% 30.10 in - SW 5.8 mph - N/A   Clear
8:53 AM 39.0 °F 31.8 °F 21.0 °F 49% 30.09 in - SW 11.5 mph - N/A   Clear
9:53 AM 48.9 °F - 19.9 °F 32% 30.07 in - South 15.0 mph - N/A   Clear
10:53 AM 57.0 °F - 18.0 °F 22% 30.05 in - South 19.6 mph 25.3 mph N/A   Clear
11:53 AM 61.0 °F - 17.1 °F 18% 30.02 in - SSW 25.3 mph 33.4 mph N/A   Clear
12:53 PM 64.0 °F - 19.9 °F 18% 29.96 in - SSW 25.3 mph 33.4 mph N/A   Clear
1:53 PM 68.0 °F - 19.9 °F 16% 29.92 in - SW 20.7 mph 29.9 mph N/A   Clear
2:53 PM 70.0 °F - 17.1 °F 13% 29.90 in - WSW 25.3 mph 33.4 mph N/A   Clear
3:53 PM 70.0 °F - 17.1 °F 13% 29.88 in - SSW 15.0 mph 25.3 mph N/A   Clear
4:53 PM 70.0 °F - 16.0 °F 13% 29.87 in - SSW 17.3 mph - N/A   Clear
5:53 PM 63.0 °F - 23.0 °F 22% 29.87 in - South 10.4 mph - N/A   Clear
6:53 PM 54.0 °F - 23.0 °F 30% 29.88 in - SE 10.4 mph - N/A   Clear
7:53 PM 51.1 °F - 23.0 °F 33% 29.89 in - SE 10.4 mph - N/A   Clear
8:53 PM 48.9 °F - 25.0 °F 39% 29.89 in - SE 10.4 mph - N/A   Clear
9:53 PM 46.9 °F - 24.1 °F 41% 29.90 in - ESE 9.2 mph - N/A   Clear
10:53 PM 44.1 °F 39.0 °F 25.0 °F 47% 29.89 in - ESE 9.2 mph - N/A   Clear
11:53 PM 43.0 °F 37.7 °F 25.0 °F 49% 29.88 in - ESE 9.2 mph - N/A   Clear